Location: Unspecified
(0.0000°N, 0.0000°E)
Time: 14:30:17
(UTC+00:00)

Courier 1B - Pass Details

Date: 12 February 2026
Orbit: 962 x 1208 km, 28.3° (Epoch: 16 March)

Event Time Altitude Azimuth Distance (km) Brightness Sun altitude
Exits shadow 03:17:18 14° 45° (NE) 2,675 9.9 -42.7°
Drops below altitude 10° 03:19:05 10° 59° (ENE) 2,940 10.3 -42.2°
Sets 03:23:00 0° 79° (E) 3,845 11.3 -41.3°
